Weather in Kurdzhali

Bulgaria     41°38′39″N   25°22′30″E
temp.,
°C
wind,
m/s
gust,
m/s
humid.,
%
clouds,
%
prec.,
mm/h
press.,
hPa
HPBL,
m
16 june, wed
wed1600:00+13ssw2292100 1.1 101343
03:00+13ssw2291100 1.3 101245
06:00+13sw229095 0.4 101143
09:00+19nw6117332 0.6 1011745
12:00+22nnw9115915 0.0 10121558
15:00+22n586592 0.6 10121017
18:00+24n465899 0.3 10121737
21:00+15wnw239595 3.0 101550
17 june, thu
thu1700:00+15s11905 0.1 101611
03:00+15wsw119051 0.1 101611
06:00+15sw11896 0.1 101611
09:00+19sse117745 0.3 1018324
12:00+23e2164100 1.1 1017851
15:00+24sse325919 3.4 10161301
18:00+23ssw55689 1.0 1016724
21:00+19s228650 1.2 101715
18 june, fri
fri1800:00+17nw229281 0.1 101817
03:00+16wnw11945 0.5 101711
06:00+15w11920 0.1 101711
09:00+20n227689 0.1 1017382
12:00+22n2365100 0.1 1017774
15:00+24nne3356100 0.3 10161457
18:00+19ne4589100 1.3 1016279
21:00+17ene1195100 2.3 101623
19 june, sat
sat1900:00+17wsw119397 0.1 101612
03:00+15wnw119492 0.2 101612
06:00+15wnw2292100 0.0 101521
09:00+20n357693 0.1 1015397
12:00+19nw588270 1.2 1016632
15:00+23nnw566718 1.9 10141311
18:00+22n56719 1.8 1014899
21:00+17n35865 2.2 101589
20 june, sun
sun2000:00+15nw22932 0.0 101625
03:00+15nw229319 0.0 101616
06:00+16nnw249135 0.0 1016135
09:00+19n46766 0.0 1016679
12:00+22nne566746 0.3 10161223
15:00+23nne556458 1.0 10141313
18:00+23ne446524 0.6 10141072
21:00+18ene128486 0.6 101412